Regional Weather Roundup
Issued by NWS

Home | Current Version | Previous Version | Graphics & Text | Print | Product List | Glossary On
Versions: 1 2 3 4 5 6 7 8 9 10 11 12 13 14 15 16 17 18 19 20 21 22 23 24 25 26 27 28 29 30 31 32 33 34 35 36 37 38 39 40 41 42 43 44 45 46 47 48 49 50
000
ASUS43 KLSX 301307
RWRMO

WEATHER SUMMARY FOR MISSOURI
NATIONAL WEATHER SERVICE SPRINGFIELD MO
800 AM CDT THU OCT 30 2014

NOTE: "FAIR" INDICATES FEW OR NO CLOUDS BELOW 12,000 FEET WITH NO
       SIGNIFICANT WEATHER AND/OR OBSTRUCTIONS TO VISIBILITY.
       CURRENT SKY AND/OR WEATHER CONDITIONS ARE NOT AVAILABLE FOR
       CHILLICOTHE AND FARMINGTON.

MOZ001>031-035>038-043-044-053-054-301400-
...NORTHERN AND WESTERN MISSOURI...

CITY           SKY/WX    TMP DP  RH WIND       PRES   REMARKS
KANSAS CTY INT MOCLDY    48  41  76 S8        30.00S HAZE
KANSAS C DTWN  MOCLDY    54  40  59 NW6       30.01R
LEE`S SUMMIT   CLOUDY    52  40  63 SW12      30.01S
ST JOSEPH      CLOUDY    44  39  82 E3        29.99F
CHILLICOTHE      N/A     48  36  63 CALM      30.05R
KIRKSVILLE     LGT RAIN  44  39  82 SE14      30.06F

$$
MOZ066>068-077>081-088>096-101>105-301400-
...SOUTHWEST MISSOURI...

CITY           SKY/WX    TMP DP  RH WIND       PRES   REMARKS
SPRINGFIELD    PTCLDY    45  36  70 S10       30.09F
JOPLIN         PTCLDY    52  40  63 S10       30.07F

$$
MOZ032>034-039>042-045>050-055>058-069>072-301400-
...CENTRAL MISSOURI...

CITY           SKY/WX    TMP DP  RH WIND       PRES   REMARKS
COLUMBIA       MOCLDY    41  35  79 SE10      30.08F
JEFFERSON CITY PTCLDY    38  35  89 SE7       30.10F
ROLLA          CLEAR     41  31  67 S9        30.09S
SEDALIA        CLOUDY    48  36  63 S8        30.06S
WHITEMAN AFB   PTCLDY    46  40  77 SW13      30.02F
OSAGE BEACH    CLEAR     41  32  70 SE7       30.08S

$$
MOZ051-052-059>065-301400-
...EAST CENTRAL MISSOURI...

CITY           SKY/WX    TMP DP  RH WIND       PRES   REMARKS
ST LOUIS INTL  PTCLDY    42  36  79 E5        30.15S
SPIRIT OF STL  PTCLDY    34  33  96 CALM      30.13F
ST CHARLES     PTCLDY    38  37  97 E6        30.14F

$$
MOZ072>076-082>087-097>100-106>115-301400-
...SOUTH CENTRAL AND SOUTHEAST MISSOURI...

CITY           SKY/WX    TMP DP  RH WIND       PRES   REMARKS
CAPE GIRARDEAU FOG       35  34  96 CALM      30.18S VSB 3/4
FARMINGTON     CLEAR     32  30  93 CALM      30.16S
POPLAR BLUFF   CLEAR     36  32  85 CALM      30.17R
WEST PLAINS    CLEAR     41  30  65 CALM      30.15S

$$



USA.gov is the U.S. government's official web portal to all federal, state and local government web resources and services.